Location: Cisewo
(53.3833°N, 14.9000°E)
Time: 05:38:15
(UTC+00:00)

NOAA 18 - Pass Details

Date: 24 September 2021
Orbit: 841 x 860 km, 99.0° (Epoch: 17 October)

Event Time Altitude Azimuth Distance (km) Brightness Sun altitude
Exits shadow 18:13:28 14° 80° (E) 2,206 6.8 -12.6°
Maximum altitude 18:15:53 18° 49° (NE) 1,958 6.8 -12.9°
Drops below altitude 10° 18:19:29 10° 8° (N) 2,485 7.8 -13.4°
Sets 18:22:34 0° 351° (N) 3,429 8.8 -13.9°
